BEIDOU 9

Last updated on Nov. 20, 2019, 4:20 a.m. UTC

1 37763U 11038A   19322.59438501 -.00000035  00000-0  10000-3 0  9994
2 37763  54.4264 187.3854 0065519 224.7672 311.7352  1.00293506 30556
UTC
Height (km)
Latitude
Longitude
Inclination
Orbital Period
UTC large
Height (km)
Speed (km/s)
/
Latitude / Longitude
Inclination (degrees)
Orbital Period (minutes)
Azimuth
Elevation
Range (km)
Doppler Factor
iOS Compass Heading
iOS Angle

Next 30 passes for location: Hong Kong

Rise time Rise Azimuth (degrees) Set time Set Azimuth (degrees) Duration Max altitude (degrees)

No matching passes for this satellites